Weather History for KGDV - May, 2013

Change the Weather History Date:

Friday, May 10, 2013

  Actual Average Record
Temperature  
Mean Temperature 50 °F -  
Max Temperature 64 °F 60 °F 73 °F (1997)
Min Temperature 35 °F 37 °F 26 °F (2002)
Degree Days  
Heating Degree Days 16    
Moisture  
Dew Point 29 °F    
Average Humidity 46    
Maximum Humidity 81    
Minimum Humidity 22    
Precipitation  
Precipitation 0.00 in - - ()
Sea Level Pressure  
Sea Level Pressure 30.21 in    
Wind  
Wind Speed 10 mph (NNW)    
Max Wind Speed 28 mph    
Max Gust Speed 34 mph    
Visibility 10 miles    
Events      
Averages and records for this station are not official NWS values.
T = Trace of Precipitation, MM = Missing Value Source: NWS Daily Summary

Daily Weather History Graph

Daily Weather History Graph

Search for Another Location

Airport or City:

Trip Planner

Search our weather history database for the weather conditions in past years. The results will help you decide how hot, cold, wet, or windy it might be!

Date:

Astronomy

May. 10, 2013 Rise Set
Actual Time 5:29 AM MDT 8:22 PM MDT
Civil Twilight 4:54 AM MDT 8:58 PM MDT
Nautical Twilight 4:08 AM MDT 9:43 PM MDT
Astronomical Twilight 3:14 AM MDT 10:38 PM MDT
Moon 5:55 AM MDT (5/10) 9:15 PM MDT (5/10)
Length of Visible Light 16h 04m
Length of Day
14h 53m
New Moon, 1% of the Moon is Illuminated
May 10
New Moon
May 17
First Quarter
May 24
Full
May 31
Last Quarter
Jun 8
New

Hourly Weather History & Observations

Time (MDT) Temp. Windchill Dew Point Humidity Pressure Visibility Wind Dir Wind Speed Gust Speed Precip Events Conditions
12:15 AM 48.2 °F - 33.8 °F 58% 30.14 in 10.0 mi ENE 5.8 mph - N/A   Clear
12:35 AM 48.2 °F - 32.0 °F 54% 30.14 in 10.0 mi NE 5.8 mph - N/A   Clear
12:55 AM 46.4 °F 43.5 °F 32.0 °F 57% 30.14 in 10.0 mi NE 5.8 mph - N/A   Clear
1:15 AM 48.2 °F - 32.0 °F 54% 30.14 in 10.0 mi East 5.8 mph - N/A   Clear
1:35 AM 44.6 °F - 32.0 °F 61% 30.13 in 10.0 mi Calm Calm - N/A   Clear
1:55 AM 41.0 °F - 30.2 °F 65% 30.12 in 10.0 mi Calm Calm - N/A   Clear
2:15 AM 42.8 °F 41.1 °F 30.2 °F 61% 30.12 in 10.0 mi West 3.5 mph - N/A   Clear
2:35 AM 39.2 °F 37.0 °F 28.4 °F 65% 30.11 in 10.0 mi South 3.5 mph - N/A   Clear
2:55 AM 44.6 °F - 30.2 °F 57% 30.11 in 10.0 mi Calm Calm - N/A   Clear
3:15 AM 37.4 °F 33.8 °F 30.2 °F 75% 30.12 in 10.0 mi West 4.6 mph - N/A   Clear
3:35 AM 39.2 °F - 28.4 °F 65% 30.11 in 10.0 mi Calm Calm - N/A   Clear
4:15 AM 35.6 °F 32.8 °F 28.4 °F 75% 30.10 in 10.0 mi WSW 3.5 mph - N/A   Clear
4:35 AM 37.4 °F 32.8 °F 28.4 °F 70% 30.10 in 10.0 mi SW 5.8 mph - N/A   Clear
4:55 AM 37.4 °F 31.4 °F 30.2 °F 75% 30.09 in 10.0 mi SW 8.1 mph - N/A   Clear
5:15 AM 35.6 °F 29.2 °F 28.4 °F 75% 30.09 in 10.0 mi WSW 8.1 mph - N/A   Clear
5:35 AM 35.6 °F 30.7 °F 30.2 °F 81% 30.09 in 10.0 mi WSW 5.8 mph - N/A   Clear
5:55 AM 37.4 °F 31.4 °F 30.2 °F 75% 30.09 in 10.0 mi SW 8.1 mph - N/A   Clear
6:15 AM 39.2 °F 35.0 °F 33.8 °F 81% 30.08 in 10.0 mi SSW 5.8 mph - N/A   Clear
6:35 AM 44.6 °F 42.2 °F 35.6 °F 71% 30.09 in 10.0 mi SSW 4.6 mph - N/A   Clear
6:55 AM 46.4 °F 43.5 °F 37.4 °F 71% 30.09 in 10.0 mi SSW 5.8 mph - N/A   Clear
7:35 AM 50.0 °F - 39.2 °F 66% 30.10 in 10.0 mi South 5.8 mph - N/A   Clear
7:55 AM 51.8 °F - 39.2 °F 62% 30.10 in 10.0 mi SSW 5.8 mph - N/A   Clear
8:15 AM 53.6 °F - 42.8 °F 67% 30.11 in 10.0 mi Calm Calm - N/A   Scattered Clouds
8:35 AM 57.2 °F - 44.6 °F 63% 30.10 in 10.0 mi South 8.1 mph - N/A   Partly Cloudy
8:55 AM 60.8 °F - 44.6 °F 55% 30.11 in 10.0 mi SSW 4.6 mph - N/A   Clear
9:35 AM 64.4 °F - 42.8 °F 45% 30.12 in 10.0 mi NNW 21.9 mph - N/A   Clear
9:55 AM 64.4 °F - 39.2 °F 40% 30.13 in 10.0 mi NNW 27.6 mph 34.5 mph N/A   Clear
10:15 AM 62.6 °F - 39.2 °F 42% 30.14 in 10.0 mi North 21.9 mph 29.9 mph N/A   Clear
10:35 AM 62.6 °F - 37.4 °F 39% 30.14 in 10.0 mi North 23.0 mph - N/A   Partly Cloudy
10:55 AM 62.6 °F - 37.4 °F 39% 30.17 in 10.0 mi North 23.0 mph 31.1 mph N/A   Scattered Clouds
11:15 AM 60.8 °F - 37.4 °F 42% 30.20 in 10.0 mi North 26.5 mph 31.1 mph N/A   Mostly Cloudy
11:35 AM 59.0 °F - 37.4 °F 45% 30.22 in 10.0 mi North 23.0 mph 29.9 mph N/A   Mostly Cloudy
11:55 AM 57.2 °F - 37.4 °F 48% 30.23 in 10.0 mi North 23.0 mph 29.9 mph N/A   Scattered Clouds
12:15 PM 57.2 °F - 35.6 °F 44% 30.23 in 10.0 mi NNW 24.2 mph 33.4 mph N/A   Partly Cloudy
12:35 PM 57.2 °F - 35.6 °F 44% 30.23 in 10.0 mi North 20.7 mph 25.3 mph N/A   Partly Cloudy
1:15 PM 59.0 °F - 33.8 °F 39% 30.23 in 10.0 mi NNE 21.9 mph 27.6 mph N/A   Partly Cloudy
1:35 PM 60.8 °F - 30.2 °F 31% 30.25 in 10.0 mi North 25.3 mph 28.8 mph N/A   Partly Cloudy
1:55 PM 59.0 °F - 24.8 °F 27% 30.25 in 10.0 mi NNW 26.5 mph 31.1 mph N/A   Partly Cloudy
2:15 PM 60.8 °F - 24.8 °F 25% 30.26 in 10.0 mi North 26.5 mph - N/A   Clear
2:35 PM 60.8 °F - 24.8 °F 25% 30.26 in 10.0 mi North 23.0 mph 28.8 mph N/A   Clear
2:55 PM 62.6 °F - 26.6 °F 26% 30.26 in 10.0 mi North 20.7 mph 29.9 mph N/A   Clear
3:15 PM 62.6 °F - 24.8 °F 24% 30.26 in 10.0 mi NNW 17.3 mph 24.2 mph N/A   Clear
3:35 PM 62.6 °F - 24.8 °F 24% 30.26 in 10.0 mi North 23.0 mph 32.2 mph N/A   Clear
4:15 PM 60.8 °F - 23.0 °F 23% 30.26 in 10.0 mi North 24.2 mph 31.1 mph N/A   Clear
4:35 PM 60.8 °F - 21.2 °F 22% 30.26 in 10.0 mi North 23.0 mph - N/A   Clear
4:55 PM 59.0 °F - 23.0 °F 25% 30.27 in 10.0 mi North 18.4 mph - N/A   Clear
5:15 PM 59.0 °F - 24.8 °F 27% 30.27 in 10.0 mi North 19.6 mph 27.6 mph N/A   Clear
5:35 PM 57.2 °F - 21.2 °F 25% 30.27 in 10.0 mi North 17.3 mph - N/A   Clear
6:15 PM 59.0 °F - 21.2 °F 23% 30.28 in 10.0 mi North 23.0 mph 27.6 mph N/A   Clear
6:35 PM 57.2 °F - 21.2 °F 25% 30.29 in 10.0 mi NNW 19.6 mph 28.8 mph N/A   Clear
6:55 PM 57.2 °F - 21.2 °F 25% 30.30 in 10.0 mi North 15.0 mph - N/A   Clear
7:15 PM 57.2 °F - 21.2 °F 25% 30.30 in 10.0 mi North 16.1 mph 23.0 mph N/A   Clear
7:35 PM 55.4 °F - 21.2 °F 26% 30.30 in 10.0 mi North 16.1 mph - N/A   Clear
7:55 PM 55.4 °F - 21.2 °F 26% 30.31 in 10.0 mi North 10.4 mph - N/A   Partly Cloudy
8:15 PM 55.4 °F - 21.2 °F 26% 30.32 in 10.0 mi North 9.2 mph - N/A   Partly Cloudy
8:55 PM 48.2 °F - 21.2 °F 34% 30.33 in 10.0 mi North 8.1 mph - N/A   Clear
9:15 PM 46.4 °F 41.9 °F 21.2 °F 37% 30.34 in 10.0 mi NNW 9.2 mph - N/A   Clear
9:35 PM 46.4 °F 41.9 °F 21.2 °F 37% 30.35 in 10.0 mi NNW 9.2 mph - N/A   Clear
9:55 PM 42.8 °F 38.0 °F 21.2 °F 42% 30.35 in 10.0 mi North 8.1 mph - N/A   Clear
10:15 PM 44.6 °F 40.2 °F 21.2 °F 39% 30.36 in 10.0 mi North 8.1 mph - N/A   Clear
10:35 PM 44.6 °F 40.7 °F 21.2 °F 39% 30.36 in 10.0 mi North 6.9 mph - N/A   Clear
10:55 PM 42.8 °F 38.6 °F 21.2 °F 42% 30.36 in 10.0 mi NNW 6.9 mph - N/A   Clear
11:15 PM 39.2 °F 33.0 °F 21.2 °F 49% 30.37 in 10.0 mi NNW 9.2 mph - N/A   Clear
11:35 PM 39.2 °F 32.5 °F 19.4 °F 45% 30.37 in 10.0 mi NNW 10.4 mph - N/A   Clear